Weather History for Fort Stockton, TX

Change the Weather History Date:

Thursday, January 23, 2014

  Actual Average Record
Temperature  
Mean Temperature 34 °F -  
Max Temperature 44 °F 61 °F 78 °F (2009)
Min Temperature 23 °F 36 °F 23 °F (2014)
Degree Days  
Heating Degree Days 32    
Moisture  
Dew Point 11 °F    
Average Humidity 40    
Maximum Humidity 54    
Minimum Humidity 19    
Precipitation  
Precipitation 0.00 in - - ()
Sea Level Pressure  
Sea Level Pressure 30.35 in    
Wind  
Wind Speed 12 mph (NNE)    
Max Wind Speed 17 mph    
Max Gust Speed 26 mph    
Visibility 10 miles    
Events      
Averages and records for this station are not official NWS values.
T = Trace of Precipitation, MM = Missing Value Source: NWS Daily Summary

Daily Weather History Graph

Daily Weather History Graph

Search for Another Location

Airport:

Trip Planner

Search our weather history database for the weather conditions in past years. The results will help you decide how hot, cold, wet, or windy it might be!

Date:

Astronomy

Jan. 23, 2014 Rise Set
Actual Time 7:47 AM CST 6:19 PM CST
Civil Twilight 7:22 AM CST 6:45 PM CST
Nautical Twilight 6:52 AM CST 7:14 PM CST
Astronomical Twilight 6:24 AM CST 7:43 PM CST
Moon 12:23 AM CST (1/23) 11:55 AM CST (1/23)
Length of Visible Light 11h 23m
Length of Day
10h 31m
Waning Gibbous, 55% of the Moon is Illuminated
Jan 23
Waning Gibbous
Jan 23
Last Quarter
Jan 30
New
Feb 6
First Quarter
Feb 14
Full

Hourly Weather History & Observations

Time (CST) Temp. Windchill Dew Point Humidity Pressure Visibility Wind Dir Wind Speed Gust Speed Precip Events Conditions
12:53 AM 44.1 °F 38.6 °F 19.9 °F 38% 29.95 in 10.0 mi NNE 10.4 mph - N/A   Partly Cloudy
1:53 AM 42.1 °F 37.1 °F 19.9 °F 41% 29.99 in 10.0 mi North 8.1 mph - N/A   Scattered Clouds
2:53 AM 39.0 °F 32.8 °F 21.0 °F 49% 30.02 in 10.0 mi NNW 9.2 mph - N/A   Clear
3:53 AM 39.0 °F 33.4 °F 21.0 °F 49% 30.04 in 10.0 mi NNW 8.1 mph - N/A   Partly Cloudy
4:53 AM 37.9 °F 32.7 °F 21.0 °F 51% 30.06 in 10.0 mi North 6.9 mph - N/A   Scattered Clouds
5:53 AM 37.9 °F 30.9 °F 21.0 °F 51% 30.10 in 10.0 mi NE 10.4 mph - N/A   Overcast
6:53 AM 37.0 °F 29.8 °F 19.9 °F 50% 30.15 in 10.0 mi NE 10.4 mph - N/A   Overcast
7:53 AM 35.1 °F 25.9 °F 19.0 °F 52% 30.22 in 10.0 mi NNE 13.8 mph - N/A   Scattered Clouds
8:53 AM 35.1 °F 26.4 °F 19.9 °F 54% 30.27 in 10.0 mi NE 12.7 mph - N/A   Scattered Clouds
9:53 AM 35.1 °F 25.5 °F 19.9 °F 54% 30.32 in 10.0 mi NE 15.0 mph - N/A   Mostly Cloudy
10:53 AM 36.0 °F 26.7 °F 18.0 °F 48% 30.37 in 10.0 mi NNE 15.0 mph - N/A   Mostly Cloudy
11:53 AM 36.0 °F 26.0 °F 16.0 °F 44% 30.39 in 10.0 mi NE 17.3 mph - N/A   Overcast
12:53 PM 37.9 °F 28.5 °F 16.0 °F 41% 30.39 in 10.0 mi NE 17.3 mph 24.2 mph N/A   Mostly Cloudy
1:53 PM 37.0 °F 28.9 °F 16.0 °F 42% 30.40 in 10.0 mi NE 12.7 mph 19.6 mph N/A   Mostly Cloudy
2:53 PM 36.0 °F 26.7 °F 16.0 °F 44% 30.42 in 10.0 mi NNE 15.0 mph 23.0 mph N/A   Mostly Cloudy
3:53 PM 35.1 °F 25.2 °F 15.1 °F 44% 30.45 in 10.0 mi NNE 16.1 mph 26.5 mph N/A   Mostly Cloudy
4:53 PM 32.0 °F 20.8 °F 12.0 °F 44% 30.49 in 10.0 mi NE 17.3 mph 26.5 mph N/A   Mostly Cloudy
5:53 PM 30.0 °F 19.1 °F 6.1 °F 36% 30.53 in 10.0 mi ENE 15.0 mph - N/A   Overcast
6:53 PM 28.0 °F 16.1 °F -0.0 °F 30% 30.57 in 10.0 mi NE 16.1 mph - N/A   Overcast
7:53 PM 26.1 °F 15.6 °F -8.0 °F 22% 30.61 in 10.0 mi NE 11.5 mph - N/A   Overcast
8:53 PM 25.0 °F 13.1 °F -9.0 °F 22% 30.65 in 10.0 mi NE 13.8 mph - N/A   Overcast
9:53 PM 24.1 °F 12.0 °F -11.9 °F 20% 30.68 in 10.0 mi NE 13.8 mph - N/A   Overcast
10:53 PM 23.0 °F 11.7 °F -14.1 °F 19% 30.69 in 10.0 mi NE 11.5 mph - N/A   Overcast
11:53 PM 23.0 °F 13.1 °F -13.0 °F 20% 30.70 in 10.0 mi NE 9.2 mph - N/A   Overcast